Weather History for Valentine, NE

Change the Weather History Date:

Wednesday, April 16, 2014

  Actual Average Record
Temperature  
Mean Temperature 46 °F 47 °F  
Max Temperature 62 °F 61 °F 90 °F (1958)
Min Temperature 30 °F 33 °F 12 °F (1951)
Degree Days  
Heating Degree Days 19 18  
Month to date heating degree days 347 337  
Since 1 July heating degree days 6794 6466  
Cooling Degree Days 0 0  
Month to date cooling degree days 0 0  
Year to date cooling degree days 0 0  
Moisture  
Dew Point 28 °F    
Average Humidity 60    
Maximum Humidity 89    
Minimum Humidity 30    
Precipitation  
Precipitation 0.01 in 0.08 in 1.35 in (1900)
Month to date precipitation 0.44 1.01  
Year to date precipitation 1.59 2.82  
Snow  
Snow T in 0.20 in 3.00 in (1940)
Month to date snowfall 3.3 2.9  
Since 1 July snowfall 34.8 31.5  
Snow Depth 0.00 in    
Sea Level Pressure  
Sea Level Pressure 29.87 in    
Wind  
Wind Speed 17 mph (NNW)    
Max Wind Speed 26 mph    
Max Gust Speed 34 mph    
Visibility 8 miles    
Events      
T = Trace of Precipitation, MM = Missing Value Source: NWS Daily Summary

Daily Weather History Graph

Daily Weather History Graph

Search for Another Location

Airport:

Trip Planner

Search our weather history database for the weather conditions in past years. The results will help you decide how hot, cold, wet, or windy it might be!

Date:

Astronomy

Apr. 16, 2014 Rise Set
Actual Time 6:58 AM CDT 8:25 PM CDT
Civil Twilight 6:29 AM CDT 8:55 PM CDT
Nautical Twilight 5:53 AM CDT 9:31 PM CDT
Astronomical Twilight 5:16 AM CDT 10:09 PM CDT
Moon 10:13 PM CDT (4/16) 7:46 AM CDT (4/16)
Length of Visible Light 14h 26m
Length of Day
13h 26m
Full, 98% of the Moon is Illuminated
Apr 16
Full
Apr 22
Last Quarter
Apr 29
New
May 6
First Quarter
May 14
Full

Hourly Weather History & Observations

Time (CDT) Temp. Windchill Dew Point Humidity Pressure Visibility Wind Dir Wind Speed Gust Speed Precip Events Conditions
12:52 AM 53.1 °F - 27.0 °F 37% 29.52 in 10.0 mi WSW 11.5 mph - N/A   Overcast
1:52 AM 57.0 °F - 27.0 °F 32% 29.49 in 10.0 mi SSW 10.4 mph - N/A   Overcast
2:52 AM 57.0 °F - 28.9 °F 34% 29.47 in 10.0 mi WSW 16.1 mph - N/A   Overcast
3:52 AM 53.1 °F - 30.0 °F 41% 29.48 in 10.0 mi NW 12.7 mph 19.6 mph N/A   Mostly Cloudy
4:52 AM 50.0 °F - 30.0 °F 46% 29.50 in 10.0 mi NW 24.2 mph 31.1 mph N/A   Clear
5:52 AM 41.0 °F 32.8 °F 28.9 °F 62% 29.56 in 10.0 mi NW 16.1 mph 26.5 mph N/A   Partly Cloudy
6:52 AM 39.0 °F 28.8 °F 28.9 °F 67% 29.60 in 10.0 mi NW 21.9 mph 28.8 mph N/A   Overcast
7:52 AM 35.1 °F 23.8 °F 32.0 °F 89% 29.67 in 4.0 mi NNW 20.7 mph 31.1 mph 0.01 in   Overcast
8:40 AM 34.0 °F 23.8 °F 30.9 °F 89% 29.69 in 5.0 mi NW 16.1 mph - 0.00 in   Overcast
8:52 AM 35.6 °F 24.8 °F 30.2 °F 81% 29.70 in 5.0 mi NW 19.6 mph 28.8 mph N/A   Overcast
9:52 AM 34.0 °F 22.4 °F 30.9 °F 89% 29.77 in 7.0 mi NW 20.7 mph 28.8 mph N/A   Overcast
10:52 AM 34.0 °F 24.2 °F 30.0 °F 85% 29.82 in 5.0 mi NNW 15.0 mph 28.8 mph N/A   Overcast
11:21 AM 35.1 °F 24.1 °F 30.9 °F 85% 29.82 in 5.0 mi NNW 19.6 mph 27.6 mph 0.00 in   Overcast
11:52 AM 35.1 °F 23.8 °F 30.0 °F 82% 29.88 in 7.0 mi NNW 20.7 mph 28.8 mph 0.00 in   Overcast
12:21 PM 35.1 °F 24.5 °F 30.0 °F 82% 29.87 in 7.0 mi NNW 18.4 mph 26.5 mph 0.00 in   Overcast
12:36 PM 34.0 °F 22.7 °F 30.0 °F 85% 29.87 in 8.0 mi NNW 19.6 mph 26.5 mph 0.00 in   Overcast
12:52 PM 33.8 °F 23.5 °F 30.2 °F 87% 29.89 in 6.0 mi NNW 16.1 mph 29.9 mph N/A   Overcast
1:08 PM 34.0 °F 22.7 °F 28.9 °F 82% 29.90 in 7.0 mi NNW 19.6 mph 26.5 mph N/A   Overcast
1:22 PM 35.1 °F 26.9 °F 28.9 °F 78% 29.91 in 10.0 mi NNW 11.5 mph 27.6 mph N/A   Overcast
1:33 PM 35.1 °F 24.1 °F 28.9 °F 78% 29.91 in 10.0 mi NNW 19.6 mph 27.6 mph N/A   Overcast
1:52 PM 34.0 °F 23.4 °F 28.9 °F 82% 29.96 in 7.0 mi NW 17.3 mph 28.8 mph N/A   Overcast
1:59 PM 34.0 °F 22.1 °F 28.9 °F 82% 29.93 in 6.0 mi NNW 21.9 mph 28.8 mph N/A   Haze
2:52 PM 36.0 °F 24.4 °F 30.0 °F 79% 29.98 in 7.0 mi NNW 23.0 mph 27.6 mph N/A   Overcast
3:08 PM 36.0 °F 25.3 °F 28.9 °F 76% 29.96 in 7.0 mi NNW 19.6 mph 27.6 mph N/A   Overcast
3:52 PM 35.1 °F 25.2 °F 28.9 °F 78% 30.03 in 6.0 mi NNW 16.1 mph - N/A   Haze
4:52 PM 35.1 °F 24.5 °F 28.0 °F 76% 30.06 in 7.0 mi North 18.4 mph - N/A   Overcast
5:52 PM 34.0 °F 23.0 °F 27.0 °F 75% 30.10 in 7.0 mi North 18.4 mph 24.2 mph N/A   Overcast
6:52 PM 32.0 °F 21.6 °F 26.1 °F 79% 30.16 in 7.0 mi North 15.0 mph 23.0 mph N/A   Overcast
7:52 PM 30.9 °F 21.2 °F 25.0 °F 79% 30.18 in 9.0 mi North 12.7 mph - N/A   Overcast
8:52 PM 30.9 °F 21.2 °F 25.0 °F 79% 30.19 in 10.0 mi NNE 12.7 mph - N/A   Overcast
9:44 PM 30.9 °F 22.8 °F 23.0 °F 72% 30.17 in 10.0 mi NNE 9.2 mph - N/A   Overcast
9:52 PM 30.9 °F 20.7 °F 23.0 °F 72% 30.25 in 10.0 mi North 13.8 mph - N/A   Overcast
10:52 PM 30.9 °F 21.7 °F 21.9 °F 69% 30.27 in 10.0 mi North 11.5 mph - N/A   Overcast
11:52 PM 30.9 °F 21.7 °F 21.9 °F 69% 30.28 in 10.0 mi NE 11.5 mph - N/A   Overcast